[[{"header":{"parameterUnit":"m.s-1","parameterCategory":1,"la1":30.2991,"la2":30.254,"lo1":-89.0895,"lo2":-89.0444,"dy":0.0017,"dx":0.0017,"nx":28,"ny":28,"refTime":"2024-09-27T09:00:00:Z","depth":0,"parameterNumber":2,"parameterNumberName":"U-component_of_WINDS"},"data":[0,0,0,0,0,0,0,0,0,0,0,0,0,0,0,0,0,0,0,0,0,0,0,0,0,0,0,0,0,0,0,0,0,0,0,0,0,0,0,0,0,0,0,0,0,0,0,0,0,0,0,0,0,0,0,0,0,0,6.5063,6.5065,0,6.5262,6.5264,6.5267,6.5233,6.523,6.5226,6.5223,6.543,6.5438,6.5447,0,0,0,0,0,0,0,0,0,0,0,0,0,6.4659,6.4666,6.5063,6.5066,6.5068,6.5262,6.5264,6.5267,6.5234,6.523,6.5225,6.5221,6.5427,6.5437,6.5448,0,0,0,0,0,0,0,0,0,0,0,0,0,6.4844,6.4669,6.5063,6.5075,6.5078,6.5261,6.5265,6.5268,6.5235,6.5229,6.5224,6.5219,6.5424,6.5436,6.5449,6.5634,0,0,6.5489,6.5495,0,0,0,0,0,0,0,0,6.4833,6.4859,6.507,6.5074,6.5078,6.5217,6.5198,6.5391,6.5236,6.5175,6.5223,6.5217,6.5364,6.5381,6.543,6.5644,6.5653,6.549,6.5498,6.5504,6.5508,0,0,0,0,0,0,0,6.4821,6.485,6.5142,6.5074,6.5078,6.5072,6.5092,6.5234,6.5296,6.518,6.5178,6.5202,6.5365,6.5418,6.5435,6.5656,6.549,6.5502,6.551,6.5515,6.6035,6.6041,0,0,0,0,0,0,6.4804,6.4839,6.5136,6.5148,6.494,6.5083,6.5106,6.5178,6.5295,6.5307,6.5206,6.52,6.5398,6.5419,6.5442,6.5669,6.5504,6.5516,6.5524,6.6029,6.6037,6.6043,0,0,0,0,0,0,6.4795,6.483,6.5128,6.4993,6.5031,6.5096,6.5177,6.5185,6.5237,6.5314,6.5325,6.5249,6.5394,6.5423,6.5587,6.5675,6.5522,6.5534,6.6022,6.6032,6.604,6.6122,0,0,0,0,0,0,6.4784,6.4827,6.4897,6.4995,6.5038,6.5268,6.5182,6.5192,6.526,6.5253,6.5357,6.5369,6.5393,6.5568,6.56,6.569,6.5544,6.6015,6.6026,6.6037,6.6112,6.6133,6.615,0,0,0,0,0,6.4769,6.4912,6.4901,6.4937,6.5126,6.5273,6.5298,6.5321,6.5267,6.5339,6.5388,6.5366,6.566,6.5585,6.5621,6.5717,6.6009,6.6023,6.6036,6.6103,6.6128,6.615,0,0,0,0,0,0,6.4824,6.4925,6.4914,6.5092,6.5175,6.5267,6.5358,6.5347,6.5447,6.5436,6.5462,6.5486,6.5652,6.5701,6.5615,6.5904,6.5827,6.5849,6.5866,6.5891,6.591,6.5895,6.5555,0,0,0,0,0,6.4856,6.4966,6.5049,6.5199,6.5241,6.5293,6.5358,6.5369,6.5455,6.549,6.5551,6.5637,6.5749,6.5822,6.5929,6.6118,6.6142,6.6202,6.6221,6.6237,6.6256,6.6362,6.639,6.6087,6.6087,6.6087,0,0,6.4925,6.4994,6.5062,6.5212,6.5277,6.5392,6.5322,6.5446,6.5532,6.5509,6.5668,6.5716,6.5814,6.5992,6.6073,6.6037,6.6345,6.6254,6.6266,6.6276,6.6379,6.6407,6.6433,6.6096,6.6094,6.6093,0,0,6.511,6.5172,6.5305,6.5372,6.5471,6.5505,6.5537,6.5632,6.5664,6.5823,6.5809,6.5912,6.6104,6.6175,6.6236,6.645,6.6434,6.6484,6.6586,6.669,6.6714,6.6735,6.6814,6.6841,6.6502,6.6503,6.6503,0,6.5183,6.5355,6.5375,6.5502,6.5569,6.5553,6.5689,6.5753,6.5882,6.593,6.5888,6.613,6.6194,6.639,6.6442,6.6492,6.6531,6.6473,6.6708,6.673,6.675,6.6826,6.6855,6.6508,6.6508,6.6507,6.6506,0,6.5442,6.5561,6.5657,6.5782,6.586,6.5991,6.6033,6.611,6.6114,6.6153,6.6318,6.6395,6.6518,6.6565,6.6571,6.6763,6.6738,6.6702,6.6626,6.6784,6.6856,6.6885,6.6516,6.6514,6.6513,6.6511,0,0,6.5666,6.5802,6.5837,6.5895,6.6004,6.6097,6.6228,6.6348,6.6415,6.6505,6.6618,6.6781,6.6749,6.6819,6.6832,6.6923,6.7091,6.6876,6.6879,6.6915,6.731,6.7338,6.7371,6.708,6.7086,6.709,6.7303,0,6.5862,6.6092,6.6116,6.6323,6.6435,6.6422,6.6536,6.6617,6.6657,6.6759,6.6804,6.6921,6.6868,6.6911,6.7,6.7051,6.7171,6.7036,6.7187,6.7192,6.7165,6.7408,6.7437,6.7634,6.7331,6.7335,6.7339,0,6.6122,6.622,6.6438,6.6534,6.6582,6.6684,6.6798,6.6895,6.6987,6.701,6.7089,6.7091,6.7228,6.7147,6.7338,6.7246,6.7309,6.7344,6.7353,6.7369,6.7276,6.7433,6.7697,6.7727,6.7383,6.7379,6.7376,0,6.6267,6.6453,6.6608,6.6658,6.6773,6.6845,6.6897,6.6983,6.7055,6.7155,6.7202,6.7317,6.738,6.747,6.7504,6.744,6.7694,6.7615,6.772,6.7719,6.7774,6.7771,6.8054,6.7813,6.7812,6.7812,6.7811,0,6.6485,6.6619,6.6675,6.6771,6.6922,6.6948,6.7097,6.7146,6.7223,6.733,6.7325,6.7425,6.7463,6.7571,6.7598,6.7754,6.7782,6.7807,6.7813,6.7808,6.7805,6.7851,6.7839,6.7819,6.7818,6.7816,6.7815,0,6.6672,6.6715,6.6883,6.6978,6.7006,6.7113,6.7195,6.7289,6.7328,6.7463,6.7496,6.7559,6.7685,6.7727,6.788,6.7899,6.8081,6.8074,6.805,6.8051,6.8154,6.8145,6.8479,6.8525,6.8251,6.8253,6.8255,0,6.6809,6.6913,6.7019,6.709,6.7144,6.7257,6.7331,6.7361,6.7438,6.7552,6.7633,6.7757,6.7859,6.8061,6.8121,6.8239,6.8237,6.8345,6.8254,6.8247,6.8241,6.8235,6.8247,6.8363,6.8366,6.8368,6.837,0,6.7049,6.7066,6.7171,6.7285,6.7372,6.7463,6.7551,6.761,6.7653,6.7741,6.7869,6.7948,6.8104,6.8229,6.835,6.8405,6.8397,6.8398,6.8429,6.8426,6.8408,6.8422,6.8098,6.8391,6.8388,6.8387,6.8386,6.8385,6.7218,6.731,6.7399,6.7518,6.7587,6.767,6.7763,6.7814,6.7922,6.8051,6.8063,6.8202,6.8294,6.8455,6.8515,6.8626,6.8596,6.864,6.8652,6.8663,6.8672,6.8389,6.8648,6.8648,6.8647,6.8647,6.8646,0,6.7459,6.7516,6.7625,6.7748,6.7842,6.7824,6.7921,6.8002,6.8124,6.821,6.831,6.8459,6.8581,6.8651,6.8773,6.8849,6.8848,6.888,6.8876,6.8889,6.8691,6.8652,6.8879,6.8879,6.8879,6.8879,6.8879,6.8878,6.7596,6.7752,6.7779,6.797,6.8027,6.8162,6.822,6.8297,6.8366,6.8532,6.8633,6.8678,6.8758,6.8887,6.8999,6.9016,6.9063,6.9098,6.9113,6.8927,6.8903,6.888,6.8844,6.9107,6.9108,6.9303,6.9304,6.9306]},{"header":{"parameterUnit":"m.s-1","parameterCategory":1,"la1":30.2991,"la2":30.254,"lo1":-89.0895,"lo2":-89.0444,"dy":0.0017,"dx":0.0017,"nx":28,"ny":28,"refTime":"2024-09-27T09:00:00:Z","depth":0,"parameterNumber":3,"parameterNumberName":"V-component_of_WINDS"},"data":[0,0,0,0,0,0,0,0,0,0,0,0,0,0,0,0,0,0,0,0,0,0,0,0,0,0,0,0,0,0,0,0,0,0,0,0,0,0,0,0,0,0,0,0,0,0,0,0,0,0,0,0,0,0,0,0,0,0,-1.4373,-1.4373,0,-1.4416,-1.4417,-1.4417,-1.4412,-1.4412,-1.4411,-1.441,-1.4456,-1.4458,-1.446,0,0,0,0,0,0,0,0,0,0,0,0,0,-1.4287,-1.4289,-1.4373,-1.4373,-1.4374,-1.4416,-1.4417,-1.4418,-1.4413,-1.4412,-1.4411,-1.441,-1.4456,-1.4458,-1.446,0,0,0,0,0,0,0,0,0,0,0,0,0,-1.4327,-1.4289,-1.4373,-1.4376,-1.4377,-1.4416,-1.4417,-1.4418,-1.4413,-1.4412,-1.4411,-1.441,-1.4455,-1.4458,-1.446,-1.4499,0,0,-1.4469,-1.447,0,0,0,0,0,0,0,0,-1.4325,-1.433,-1.4375,-1.4376,-1.4377,-1.4408,-1.4404,-1.4445,-1.4413,-1.4399,-1.441,-1.4409,-1.4441,-1.4445,-1.4455,-1.4501,-1.4503,-1.4469,-1.4471,-1.4472,-1.4473,0,0,0,0,0,0,0,-1.4322,-1.4328,-1.439,-1.4376,-1.4377,-1.4377,-1.4381,-1.4411,-1.4426,-1.44,-1.44,-1.4405,-1.4441,-1.4453,-1.4456,-1.4504,-1.4469,-1.4472,-1.4473,-1.4474,-1.4585,-1.4586,0,0,0,0,0,0,-1.4318,-1.4326,-1.4389,-1.4391,-1.4348,-1.4379,-1.4384,-1.4399,-1.4425,-1.4428,-1.4406,-1.4405,-1.4448,-1.4453,-1.4458,-1.4506,-1.4472,-1.4475,-1.4476,-1.4584,-1.4585,-1.4586,0,0,0,0,0,0,-1.4316,-1.4324,-1.4387,-1.4359,-1.4367,-1.4382,-1.4399,-1.4401,-1.4412,-1.443,-1.4432,-1.4415,-1.4448,-1.4454,-1.4489,-1.4508,-1.4476,-1.4478,-1.4582,-1.4584,-1.4586,-1.4602,0,0,0,0,0,0,-1.4314,-1.4323,-1.4337,-1.4359,-1.4368,-1.4417,-1.44,-1.4402,-1.4417,-1.4415,-1.4439,-1.4441,-1.4447,-1.4485,-1.4492,-1.4511,-1.4481,-1.4581,-1.4583,-1.4585,-1.46,-1.4604,-1.4608,0,0,0,0,0,-1.4311,-1.434,-1.4338,-1.4346,-1.4386,-1.4418,-1.4423,-1.4429,-1.4418,-1.4433,-1.4445,-1.4441,-1.4504,-1.4488,-1.4496,-1.4516,-1.4579,-1.4582,-1.4585,-1.4598,-1.4603,-1.4607,0,0,0,0,0,0,-1.432,-1.4343,-1.4341,-1.4378,-1.4396,-1.4417,-1.4435,-1.4434,-1.4456,-1.4454,-1.4461,-1.4466,-1.4502,-1.4512,-1.4494,-1.4556,-1.4541,-1.4545,-1.4548,-1.4553,-1.4557,-1.4554,-1.4483,0,0,0,0,0,-1.4326,-1.4349,-1.4368,-1.4399,-1.4408,-1.442,-1.4434,-1.4437,-1.4456,-1.4464,-1.4478,-1.4497,-1.4522,-1.4538,-1.4561,-1.4601,-1.4607,-1.4619,-1.4623,-1.4626,-1.463,-1.4654,-1.466,-1.4596,-1.4596,-1.4596,0,0,-1.4339,-1.4355,-1.4369,-1.4401,-1.4415,-1.444,-1.4427,-1.4453,-1.4472,-1.4468,-1.4502,-1.4513,-1.4535,-1.4574,-1.4591,-1.4584,-1.4649,-1.463,-1.4632,-1.4634,-1.4657,-1.4664,-1.4669,-1.4598,-1.4597,-1.4597,0,0,-1.4376,-1.439,-1.4417,-1.4432,-1.4454,-1.4462,-1.4469,-1.4491,-1.4498,-1.4532,-1.4531,-1.4553,-1.4595,-1.4611,-1.4625,-1.467,-1.4668,-1.4677,-1.4698,-1.4721,-1.4726,-1.4731,-1.4748,-1.4754,-1.4681,-1.4681,-1.4681,0,-1.439,-1.4426,-1.4432,-1.4459,-1.4474,-1.4472,-1.4501,-1.4515,-1.4544,-1.4555,-1.4546,-1.4599,-1.4614,-1.4656,-1.4667,-1.4678,-1.4687,-1.4675,-1.4725,-1.473,-1.4734,-1.4751,-1.4757,-1.4682,-1.4682,-1.4682,-1.4682,0,-1.4443,-1.4469,-1.4488,-1.4516,-1.4533,-1.4561,-1.4572,-1.4589,-1.4591,-1.46,-1.4636,-1.4654,-1.4681,-1.4692,-1.4694,-1.4735,-1.473,-1.4723,-1.4708,-1.4741,-1.4757,-1.4763,-1.4684,-1.4683,-1.4683,-1.4683,0,0,-1.4486,-1.4518,-1.4525,-1.4538,-1.4563,-1.4583,-1.4612,-1.4639,-1.4654,-1.4674,-1.4699,-1.4735,-1.4729,-1.4744,-1.4748,-1.4769,-1.4805,-1.4759,-1.476,-1.4768,-1.4854,-1.486,-1.4867,-1.4803,-1.4805,-1.4806,-1.4852,0,-1.4527,-1.4576,-1.4583,-1.4627,-1.4652,-1.4651,-1.4676,-1.4694,-1.4704,-1.4727,-1.4738,-1.4764,-1.4754,-1.4763,-1.4783,-1.4796,-1.4822,-1.4793,-1.4828,-1.4829,-1.4823,-1.4875,-1.4881,-1.4924,-1.4858,-1.4859,-1.486,0,-1.458,-1.4602,-1.4649,-1.4672,-1.4682,-1.4704,-1.473,-1.4752,-1.4774,-1.4779,-1.4798,-1.48,-1.483,-1.4813,-1.4857,-1.4837,-1.4851,-1.486,-1.4862,-1.4866,-1.4847,-1.4881,-1.4937,-1.4944,-1.487,-1.4869,-1.4868,0,-1.4609,-1.465,-1.4684,-1.4695,-1.4722,-1.4738,-1.475,-1.477,-1.4787,-1.481,-1.4821,-1.4847,-1.4862,-1.4883,-1.4892,-1.4879,-1.4936,-1.4919,-1.4943,-1.4943,-1.4955,-1.4954,-1.5016,-1.4963,-1.4963,-1.4963,-1.4963,0,-1.4653,-1.4682,-1.4697,-1.4718,-1.4751,-1.4758,-1.4791,-1.4803,-1.4822,-1.4846,-1.4846,-1.4869,-1.488,-1.4905,-1.4912,-1.4948,-1.4954,-1.4961,-1.4963,-1.4962,-1.4961,-1.4972,-1.497,-1.4965,-1.4964,-1.4964,-1.4963,0,-1.4691,-1.4702,-1.4739,-1.4762,-1.4768,-1.4792,-1.4812,-1.4833,-1.4843,-1.4873,-1.4881,-1.4897,-1.4926,-1.4938,-1.4974,-1.4979,-1.5021,-1.5019,-1.5013,-1.5014,-1.5037,-1.5036,-1.5109,-1.5119,-1.5059,-1.5059,-1.506,0,-1.4719,-1.4742,-1.4767,-1.4783,-1.4796,-1.4822,-1.4838,-1.4847,-1.4865,-1.4892,-1.491,-1.4939,-1.4963,-1.5011,-1.5026,-1.5054,-1.5054,-1.5078,-1.5059,-1.5057,-1.5057,-1.5056,-1.5059,-1.5082,-1.5083,-1.5083,-1.5083,0,-1.4769,-1.4774,-1.4797,-1.4824,-1.4844,-1.4865,-1.4886,-1.4899,-1.4911,-1.4931,-1.4961,-1.498,-1.5017,-1.5047,-1.5076,-1.5089,-1.5089,-1.5089,-1.5097,-1.5096,-1.5092,-1.5096,-1.5024,-1.5088,-1.5087,-1.5087,-1.5087,-1.5087,-1.4804,-1.4824,-1.4846,-1.4873,-1.489,-1.4909,-1.493,-1.4943,-1.4968,-1.4999,-1.5003,-1.5035,-1.5058,-1.5097,-1.5112,-1.5138,-1.5132,-1.5142,-1.5145,-1.5148,-1.515,-1.5087,-1.5144,-1.5143,-1.5143,-1.5143,-1.5143,0,-1.4855,-1.4869,-1.4894,-1.4923,-1.4945,-1.4942,-1.4965,-1.4984,-1.5012,-1.5033,-1.5057,-1.5092,-1.5121,-1.5139,-1.5169,-1.5187,-1.5188,-1.5195,-1.5194,-1.5198,-1.5153,-1.5145,-1.5194,-1.5194,-1.5194,-1.5194,-1.5194,-1.5194,-1.4884,-1.4919,-1.4926,-1.497,-1.4984,-1.5016,-1.503,-1.5048,-1.5065,-1.5105,-1.5129,-1.514,-1.5161,-1.5192,-1.5219,-1.5224,-1.5235,-1.5243,-1.5247,-1.5206,-1.52,-1.5195,-1.5188,-1.5245,-1.5245,-1.529,-1.529,-1.5291]}]]